| time (UTC) | temp F | wind direction | speed MPH | gust MPH | rain 1hr in | rain 24hr in | rain mn in | humidity % | barometer mb |
| 20260506092720 | 44 | 220 | 17.0 | 19.0 | 0.00 | 0.00 | 0.00 | 76 | 1013.6 |
| 20260506090720 | 44 | 219 | 16.0 | 18.0 | 0.00 | 0.00 | 0.00 | 76 | 1013.5 |
| 20260506084720 | 43 | 210 | 14.0 | 16.0 | 0.00 | 0.00 | 0.00 | 75 | 1013.4 |
| 20260506082720 | 43 | 221 | 15.0 | 17.0 | 0.00 | 0.00 | 0.00 | 77 | 1013.4 |
| 20260506080720 | 43 | 221 | 15.0 | 18.0 | 0.00 | 0.00 | 0.00 | 75 | 1013.2 |
| 20260506072720 | 43 | 226 | 12.0 | 14.0 | 0.00 | 0.00 | 0.00 | 72 | 1013.0 |
| 20260506070720 | 43 | 224 | 12.0 | 13.0 | 0.00 | 0.00 | 0.00 | 73 | 1012.8 |
| 20260506060720 | 42 | 248 | 12.0 | 13.0 | 0.00 | 0.00 | 0.00 | 73 | 1012.5 |
| 20260506050719 | 40 | 259 | 12.0 | 13.0 | 0.00 | 0.00 | 0.00 | 73 | 1011.8 |
| 20260506044720 | 40 | 259 | 12.0 | 13.0 | 0.00 | 0.00 | 0.00 | 75 | 1011.6 |
| 20260506042719 | 39 | 267 | 11.0 | 13.0 | 0.00 | 0.00 | 0.00 | 76 | 1011.5 |
| 20260506040719 | 39 | 266 | 11.0 | 13.0 | 0.00 | 0.00 | 0.00 | 76 | 1011.3 |
| 20260506034719 | 39 | 266 | 11.0 | 14.0 | 0.00 | 0.00 | 0.00 | 78 | 1011.2 |
| 20260506032719 | 38 | 261 | 11.0 | 13.0 | 0.00 | 0.00 | 0.00 | 77 | 1010.9 |
| 20260506030719 | 38 | 258 | 11.0 | 13.0 | 0.00 | 0.00 | 0.00 | 78 | 1010.7 |
| 20260506024719 | 38 | 257 | 11.0 | 12.0 | 0.00 | 0.00 | 0.00 | 78 | 1010.5 |
| 20260506022719 | 39 | 266 | 11.0 | 12.0 | 0.00 | 0.00 | 0.00 | 74 | 1010.4 |
| 20260506020719 | 39 | 280 | 10.0 | 12.0 | 0.00 | 0.00 | 0.00 | 75 | 1010.2 |
| 20260506014719 | 39 | 275 | 11.0 | 15.0 | 0.00 | 0.00 | 0.00 | 76 | 1010.0 |
| 20260506012719 | 39 | 278 | 14.0 | 18.0 | 0.00 | 0.00 | 0.00 | 74 | 1009.9 |
| 20260506010719 | 39 | 282 | 15.0 | 18.0 | 0.00 | 0.00 | 0.00 | 76 | 1009.7 |
| 20260506004718 | 40 | 292 | 15.0 | 19.0 | 0.00 | 0.00 | 0.00 | 73 | 1009.5 |
| 20260506002718 | 40 | 293 | 16.0 | 19.0 | 0.00 | 0.00 | 0.00 | 73 | 1009.3 |
| 20260506000718 | 39 | 289 | 14.0 | 17.0 | 0.00 | 0.00 | 0.00 | 75 | 1009.3 |
| 20260505234719 | 39 | 283 | 15.0 | 17.0 | 0.00 | 0.00 | 0.00 | 76 | 1009.2 |
| 20260505232719 | 40 | 283 | 16.0 | 20.0 | 0.00 | 0.00 | 0.00 | 73 | 1009.0 |
| 20260505230718 | 40 | 282 | 16.0 | 19.0 | 0.00 | 0.00 | 0.00 | 73 | 1008.9 |
| 20260505224718 | 40 | 280 | 18.0 | 21.0 | 0.00 | 0.00 | 0.00 | 71 | 1008.7 |
| 20260505222718 | 40 | 275 | 18.0 | 20.0 | 0.00 | 0.00 | 0.00 | 71 | 1008.6 |
| 20260505220718 | 40 | 272 | 18.0 | 21.0 | 0.00 | 0.00 | 0.00 | 72 | 1008.5 |
| 20260505214718 | 41 | 271 | 19.0 | 22.0 | 0.00 | 0.00 | 0.00 | 69 | 1008.4 |
| 20260505212718 | 41 | 273 | 19.0 | 22.0 | 0.00 | 0.00 | 0.00 | 68 | 1008.2 |
| 20260505210718 | 42 | 275 | 15.0 | 19.0 | 0.00 | 0.00 | 0.00 | 68 | 1008.0 |
| 20260505204718 | 42 | 278 | 18.0 | 20.0 | 0.00 | 0.00 | 0.00 | 63 | 1007.7 |
| 20260505202718 | 42 | 278 | 18.0 | 21.0 | 0.00 | 0.00 | 0.00 | 62 | 1007.5 |
| 20260505200718 | 43 | 274 | 18.0 | 21.0 | 0.00 | 0.00 | 0.00 | 61 | 1007.3 |
| 20260505194717 | 43 | 273 | 19.0 | 22.0 | 0.00 | 0.00 | 0.00 | 60 | 1007.1 |
| 20260505192718 | 44 | 270 | 19.0 | 22.0 | 0.00 | 0.00 | 0.00 | 58 | 1007.0 |
| 20260505190717 | 44 | 268 | 19.0 | 22.0 | 0.00 | 0.00 | 0.00 | 55 | 1006.8 |
| 20260505184717 | 44 | 266 | 18.0 | 21.0 | 0.00 | 0.00 | 0.00 | 54 | 1006.7 |
| 20260505182717 | 45 | 266 | 17.0 | 21.0 | 0.00 | 0.00 | 0.00 | 55 | 1006.4 |
| 20260505180717 | 45 | 267 | 17.0 | 20.0 | 0.00 | 0.00 | 0.00 | 56 | 1006.3 |
| 20260505174717 | 45 | 261 | 18.0 | 21.0 | 0.00 | 0.00 | 0.00 | 57 | 1006.1 |
| 20260505172717 | 46 | 266 | 18.0 | 20.0 | 0.00 | 0.00 | 0.00 | 58 | 1006.0 |
| 20260505170717 | 46 | 268 | 19.0 | 21.0 | 0.00 | 0.00 | 0.00 | 52 | 1005.9 |
| 20260505164717 | 46 | 271 | 19.0 | 22.0 | 0.00 | 0.00 | 0.00 | 52 | 1005.8 |
| 20260505162717 | 45 | 247 | 20.0 | 23.0 | 0.00 | 0.00 | 0.00 | 62 | 1005.7 |
| 20260505160717 | 44 | 239 | 23.0 | 26.0 | 0.00 | 0.00 | 0.00 | 72 | 1005.6 |
| 20260505152716 | 44 | 235 | 22.0 | 26.0 | 0.00 | 0.00 | 0.00 | 77 | 1005.3 |
| 20260505150717 | 44 | 239 | 20.0 | 24.0 | 0.00 | 0.00 | 0.00 | 80 | 1005.3 |
| 20260505124716 | 45 | 234 | 22.0 | 26.0 | 0.00 | 0.00 | 0.00 | 76 | 1004.8 |
| 20260505122716 | 45 | 238 | 21.0 | 26.0 | 0.00 | 0.00 | 0.00 | 79 | 1004.6 |
| 20260505120716 | 46 | 231 | 19.0 | 30.0 | 0.00 | 0.00 | 0.00 | 74 | 1004.4 |
| 20260505114716 | 47 | 235 | 19.0 | 23.0 | 0.00 | 0.00 | 0.00 | 70 | 1004.1 |
| 20260505112716 | 47 | 242 | 20.0 | 27.0 | 0.00 | 0.00 | 0.00 | 68 | 1003.9 |
| 20260505110715 | 46 | 233 | 21.0 | 24.0 | 0.00 | 0.00 | 0.00 | 75 | 1003.5 |
| 20260505100716 | 44 | 231 | 27.0 | 33.0 | 0.00 | 0.00 | 0.00 | 83 | 1002.8 |
| 20260505094715 | 44 | 231 | 29.0 | 34.0 | 0.00 | 0.00 | 0.00 | 84 | 1002.6 |